Regional Weather Roundup
Issued by NWS

Home | Current Version | Previous Version | Graphics & Text | Print | Product List | Glossary On
Versions: 1 2 3 4 5 6 7 8 9 10 11 12 13 14 15 16 17 18 19 20 21 22 23 24 25 26 27 28 29 30 31 32 33 34 35 36 37 38 39 40 41 42 43 44 45 46 47 48 49 50
000
ASUS43 KFSD 202302
RWRSD

WEATHER ROUNDUP FOR SOUTH DAKOTA
NATIONAL WEATHER SERVICE SIOUX FALLS SD
500 PM CST SAT DEC 20 2014

NOTE: "FAIR" INDICATES FEW OR NO CLOUDS BELOW 12,000 FEET WITH NO
SIGNIFICANT WEATHER AND/OR OBSTRUCTIONS TO VISIBILITY.


SDZ001>005-009-010-012>017-210000-
NORTHWEST AND NORTH CENTRAL SOUTH DAKOTA

CITY           SKY/WX    TMP DP  RH WIND       PRES   REMARKS
BUFFALO          N/A     41  24  51 W9        29.79S
FAITH            N/A     43  28  55 CALM      29.86R
MOBRIDGE       PTCLDY    30  26  85 SE8       29.83F WCI  22
$$

SDZ012>016-024>037-041>051-057-063-072>074-210000-
SOUTHWEST AND SOUTH CENTRAL SOUTH DAKOTA

CITY           SKY/WX    TMP DP  RH WIND       PRES   REMARKS
RAPID CTY ARPT MOCLDY    41  27  57 E3        29.88S
PIERRE         CLEAR     25  22  88 E6        29.89S WCI  18
CUSTER         MOCLDY    37  22  54 W3        29.87S
ELLSWORTH AFB  MOCLDY    45  26  47 CALM      29.87F
PHILIP         PTCLDY    42  27  55 W7        29.87F
PINE RIDGE     PTCLDY    41  27  57 SW5       29.90S
WINNER         MOCLDY    36  28  73 S5        29.90F
$$

SDZ004>011-016>023-039-040-210000-
NORTHEAST SOUTH DAKOTA

CITY           SKY/WX    TMP DP  RH WIND       PRES   REMARKS
ABERDEEN       CLOUDY    29  27  92 S13       29.93F FOG     WCI  19
WATERTOWN      CLOUDY    30  28  92 S10       29.94F FOG     WCI  21
SISSETON         N/A     32  30  92 S12       29.95  WCI  23
$$

SDZ017-020-022-023-036>040-048>070-210000-
SOUTHEAST SOUTH DAKOTA

CITY           SKY/WX    TMP DP  RH WIND       PRES   REMARKS
SIOUX FALLS    CLOUDY    30  28  92 S13       30.02R FOG     WCI  20
HURON          CLOUDY    30  29  96 S12       29.95F FOG     WCI  20
MITCHELL       CLOUDY    31  30  96 SE17      29.98F FOG     WCI  19
YANKTON        CLOUDY    32  28  86 S10       30.03S WCI  24
$$

ABBREVIATIONS USED IN REMARKS
   TC - TEMPERATURE IN CELSIUS
  WCI - WIND CHILL INDEX
   HX - HEAT INDEX
  VSB - VISIBILITY



USA.gov is the U.S. government's official web portal to all federal, state and local government web resources and services.